Chicago Midway, IL

2:58 PM CST on November 21, 2019 (GMT -0600)
Chicago-Midway

Weather History for KMDW - September, 2019

Change the Weather History Date:

Friday, September 27, 2019

  Actual Average Record
Temperature  
Mean Temperature 66 °F 62 °F  
Max Temperature 71 °F 71 °F 91 °F (1971)
Min Temperature 60 °F 52 °F 31 °F (1942)
Degree Days  
Heating Degree Days 0 5  
Month to date heating degree days 0 62  
Since 1 July heating degree days 0 67  
Cooling Degree Days 1 2  
Month to date cooling degree days 179 115  
Year to date cooling degree days 1097 1025  
Growing Degree Days 16 (Base 50)    
Moisture  
Dew Point 56 °F    
Average Humidity 73    
Maximum Humidity 96    
Minimum Humidity 35    
Precipitation  
Precipitation 2.96 in 0.10 in 1.43 in (1936)
Month to date precipitation 6.86 3.02  
Year to date precipitation 36.77 29.57  
Sea Level Pressure  
Sea Level Pressure 29.77 in    
Wind  
Wind Speed 13 mph (SSW)    
Max Wind Speed 25 mph    
Max Gust Speed 37 mph    
Visibility 8 miles    
Events Rain , Thunderstorm    
T = Trace of Precipitation, MM = Missing Value Source: NWS Daily Summary

Daily Weather History Graph

Daily Weather History Graph

Search for Another Location

Airport or City:

Astronomy

Sep. 27, 2019 Rise Set
Actual Time 6:43 AM CDT 6:39 PM CDT
Civil Twilight 6:15 AM CDT 7:07 PM CDT
Nautical Twilight 5:43 AM CDT 7:39 PM CDT
Astronomical Twilight 5:10 AM CDT 8:12 PM CDT
Moon 5:01 AM CDT (9/27) 6:32 PM CDT (9/27)
Length of Visible Light 12h 51m
Length of Day
11h 56m
Waning Crescent, 2% of the Moon is Illuminated
Sep 27
Waning Crescent
Sep 28
New
Oct 5
First Quarter
Oct 13
Full
Oct 21
Last Quarter

Hourly Weather History & Observations

Time (CDT) Temp. Dew Point Humidity Pressure Visibility Wind Dir Wind Speed Gust Speed Precip Events Conditions
12:53 AM 61.0 °F 44.1 °F 54% 29.90 in 10.0 mi South 6.9 mph - N/A   Clear
1:53 AM 61.0 °F 44.1 °F 54% 29.88 in 10.0 mi South 5.8 mph - N/A   Scattered Clouds
2:53 AM 61.0 °F 43.0 °F 52% 29.84 in 10.0 mi South 9.2 mph - N/A   Overcast
3:53 AM 63.0 °F 42.1 °F 46% 29.84 in 10.0 mi SSW 6.9 mph - N/A   Overcast
4:53 AM 63.0 °F 42.1 °F 46% 29.83 in 10.0 mi SSW 6.9 mph - N/A   Overcast
5:53 AM 64.0 °F 42.1 °F 45% 29.82 in 10.0 mi South 12.7 mph - N/A   Overcast
6:53 AM 64.0 °F 44.1 °F 48% 29.82 in 10.0 mi South 13.8 mph - N/A   Mostly Cloudy
7:53 AM 64.0 °F 44.1 °F 48% 29.80 in 10.0 mi South 13.8 mph 25.3 mph N/A   Mostly Cloudy
8:53 AM 66.9 °F 44.1 °F 44% 29.77 in 10.0 mi South 20.7 mph 33.4 mph N/A   Mostly Cloudy
9:53 AM 68.0 °F 46.9 °F 47% 29.77 in 10.0 mi SSW 11.5 mph 21.9 mph N/A   Overcast
10:43 AM 68.0 °F 50.0 °F 52% 29.79 in 10.0 mi SSW 10.4 mph - N/A   Overcast
10:53 AM 68.0 °F 50.0 °F 52% 29.78 in 10.0 mi SW 9.2 mph - N/A   Overcast
11:09 AM 68.0 °F 50.0 °F 52% 29.82 in 10.0 mi SW 10.4 mph - 0.00 in Rain Light Rain
11:13 AM 68.0 °F 50.0 °F 52% 29.81 in 10.0 mi SW 11.5 mph - 0.00 in Rain , Thunderstorm Light Thunderstorms and Rain
11:53 AM 61.0 °F 55.0 °F 81% 29.84 in 4.0 mi WNW 6.9 mph - 0.13 in Rain , Thunderstorm Light Thunderstorms and Rain
12:21 PM 61.0 °F 57.0 °F 87% 29.84 in 5.0 mi SW 5.8 mph - 0.11 in Rain Light Rain
12:40 PM 61.0 °F 57.0 °F 87% 29.80 in 5.0 mi SE 6.9 mph - 0.19 in Rain Rain
12:53 PM 61.0 °F 57.9 °F 90% 29.80 in 6.0 mi South 10.4 mph - 0.23 in Rain Light Rain
1:44 PM 64.0 °F 63.0 °F 96% 29.70 in 8.0 mi SSE 11.5 mph 31.1 mph 0.06 in Rain Light Rain
1:53 PM 64.0 °F 63.0 °F 96% 29.69 in 8.0 mi South 15.0 mph 26.5 mph 0.07 in Rain Light Rain
2:14 PM 66.0 °F 63.0 °F 90% 29.78 in 9.0 mi WSW 11.5 mph 23.0 mph 0.00 in Rain , Thunderstorm Light Thunderstorms and Rain
2:32 PM 66.0 °F 64.0 °F 93% 29.69 in 7.0 mi South 18.4 mph 28.8 mph 0.02 in Rain , Thunderstorm Light Thunderstorms and Rain
2:53 PM 68.0 °F 64.9 °F 90% 29.66 in 9.0 mi SSW 18.4 mph 34.5 mph 0.03 in Rain , Thunderstorm Light Thunderstorms and Rain
3:53 PM 68.0 °F 64.9 °F 90% 29.68 in 10.0 mi South 15.0 mph 26.5 mph 0.01 in Rain Light Rain
4:53 PM 68.0 °F 64.9 °F 90% 29.68 in 10.0 mi SSW 9.2 mph - 0.00 in Rain Light Rain
5:21 PM 69.1 °F 64.9 °F 87% 29.69 in 10.0 mi SSW 8.1 mph - 0.00 in Rain , Thunderstorm Light Thunderstorms and Rain
5:30 PM 69.1 °F 64.9 °F 87% 29.72 in 2.0 mi SSW 11.5 mph - 0.09 in Rain , Thunderstorm Heavy Thunderstorms and Rain
5:44 PM 68.0 °F 64.9 °F 90% 29.71 in 5.0 mi SW 17.3 mph 26.5 mph 0.14 in Rain , Thunderstorm Light Thunderstorms and Rain
5:53 PM 69.1 °F 66.0 °F 90% 29.70 in 5.0 mi SW 11.5 mph 23.0 mph 0.18 in Rain , Thunderstorm Heavy Thunderstorms and Rain
6:53 PM 69.1 °F 66.9 °F 93% 29.69 in 5.0 mi South 9.2 mph 18.4 mph 0.09 in Rain , Thunderstorm Light Thunderstorms and Rain
7:30 PM 71.1 °F 69.1 °F 93% 29.72 in 1.8 mi South 11.5 mph 20.7 mph 0.27 in Rain , Thunderstorm Heavy Thunderstorms and Rain
7:53 PM 70.0 °F 68.0 °F 93% 29.70 in 5.0 mi South 19.6 mph 31.1 mph 0.32 in Rain , Thunderstorm Light Thunderstorms and Rain
8:53 PM 66.9 °F 64.0 °F 90% 29.75 in 4.0 mi SSW 15.0 mph 23.0 mph 0.12 in Rain , Thunderstorm Light Thunderstorms and Rain
9:53 PM 68.0 °F 66.0 °F 93% 29.74 in 6.0 mi SSW 15.0 mph - 0.06 in Rain , Thunderstorm Light Thunderstorms and Rain
10:53 PM 68.0 °F 66.0 °F 93% 29.77 in 5.0 mi SSW 8.1 mph - 0.13 in Rain , Thunderstorm Light Thunderstorms and Rain
11:36 PM 68.0 °F 66.0 °F 93% 29.77 in 5.0 mi SW 4.6 mph - N/A Rain , Thunderstorm Light Thunderstorms and Rain
11:53 PM 68.0 °F 66.0 °F 93% 29.79 in 6.0 mi NW 9.2 mph - N/A Rain , Thunderstorm Light Thunderstorms and Rain